Location: Brahman Valley
(40.6513°N, 111.8855°W)
Time: 14:14:28
(UTC+00:00)

deb Explorer IX - Visible Passes

Search period start: 08 May 2021 00:00
Search period end: 18 May 2021 00:00
Orbit: 541 x 1098 km, 38.8° (Epoch: 07 May)

Date Brightness Start Highest point End Pass type
(mag) Time Alt. Az. Time Alt. Az. Time Alt. Az.
08 May ? 09:10:48 27° ESE 09:10:48 27° ESE 09:12:48 10° E visible
08 May ? 10:52:03 20° W 10:54:53 45° SSW 10:58:53 10° SE visible
09 May ? 08:48:31 14° E 08:48:31 14° E 08:49:13 10° E visible
09 May ? 10:29:48 34° WSW 10:31:13 46° SSW 10:35:18 10° SE visible
10 May ? 10:07:48 46° S 10:07:48 46° S 10:11:43 10° SE visible
11 May ? 04:18:38 10° SSW 04:22:15 22° S 04:22:15 22° S visible
11 May ? 09:46:09 25° SE 09:46:09 25° SE 09:48:08 10° SE visible
11 May ? 11:27:28 11° WSW 11:29:49 15° SW 11:32:14 10° S visible
12 May ? 03:54:37 10° SSW 03:59:54 24° SSE 04:01:48 21° ESE visible
12 May ? 05:40:17 10° WSW 05:43:11 26° SW 05:43:11 26° SW visible
12 May ? 11:06:17 15° SSW 11:06:17 15° SSW 11:08:42 10° S visible
13 May ? 03:30:36 10° SSW 03:36:03 25° SSE 03:40:57 10° E visible
13 May ? 05:16:18 10° WSW 05:22:18 54° S 05:22:18 54° S visible
13 May ? 07:03:34 10° W 07:03:39 10° W 07:03:39 10° W visible
14 May ? 03:06:36 10° SSW 03:12:12 26° SSE 03:17:22 10° E visible
14 May ? 04:52:18 10° WSW 04:58:55 56° SSE 05:00:56 39° ESE visible
14 May ? 06:39:36 10° W 06:42:15 25° W 06:42:15 25° W visible
15 May ? 04:28:19 10° WSW 04:35:04 57° SSE 04:39:08 21° E visible
15 May ? 06:15:37 10° W 06:20:26 49° WSW 06:20:26 49° WSW visible
16 May ? 04:04:19 10° WSW 04:11:12 58° SSE 04:17:01 11° E visible
16 May ? 05:51:38 10° W 05:58:16 76° S 05:58:16 76° S visible
16 May ? 07:39:15 10° W 07:39:33 11° W 07:39:33 11° W visible
17 May ? 03:40:20 10° WSW 03:47:19 58° SSE 03:53:35 10° E visible
17 May ? 05:27:39 10° W 05:34:27 77° S 05:35:53 54° ESE visible
17 May ? 07:15:16 10° W 07:17:09 19° W 07:17:09 19° W visible
